     2              OBSERVATION DATA    GPS                 RINEX VERSION / TYPE
teqc 1998Mar9 19980808 01:04:04UTC                          PGM / RUN BY / DATE
                                                            COMMENT
BIT 2 OF LLI FLAGS DATA COLLECTED UNDER A-S CONDITION       COMMENT
BIT 2 OF LLI FLAGS DATA COLLECTED UNDER A-S CONDITION       COMMENT
Original Marker Name: WHRL1 RESET 2.89                      COMMENT
Campaign Name: L.A. Basin 1997                              COMMENT
4-Character Station Name: WORK                              COMMENT
6-Character Antenna Code: TRMSST                            COMMENT
Vertical Measurement Point: TGP                             COMMENT
Vertical Offset to Rinex Ref. Point: 0.0629                 COMMENT
Radial Measurement Point: NGP                               COMMENT
Radial Offset to Rinex Ref. Point: 0.2334                   COMMENT
Antenna Height from Field Measurement: 1.3515 m             COMMENT
Original XYZ: -2485661.4030 -4674276.9592 3545906.1993      COMMENT
New XYZ position is based on association with SCEC monument COMMENT
E1D0Q0L1+0012. Position of that monument is believed to be  COMMENT
valid to within 1 m horizontally; vertical accuracy         COMMENT
should be no worse than 3-times this value.                 COMMENT
                                                            COMMENT
Revised Rinex header created by UCSD GPS archive for        COMMENT
GSAC on 30-May-1999 (1999:150) 21:18:47 GMT                 COMMENT
For assistance contact dagnew@ucsd.edu or hjohnson@ucsd.edu COMMENT
                                                            COMMENT
WHRL1 RESET 2.89                                            MARKER NAME
UNKNOWN OBSERVER UCLA                                       OBSERVER / AGENCY
1054 TRIMBLE 4000 SST NP 4.81; SP 4.20                      REC # / TYPE / VERS
25 TR 4000SST L1/L2 GEO                                     ANT # / TYPE
 -2485662.0000 -4674282.0000  3545901.0000                  APPROX POSITION XYZ
        1.2683        0.0000        0.0000                  ANTENNA: DELTA H/E/N
     1     1     0                                          WAVELENGTH FACT L1/2
     3    C1    L1    L2                                    # / TYPES OF OBSERV
     0                                                      INTERVAL
  1997     3     5    23    33    0.000000                  TIME OF FIRST OBS
  1997     3     5    23    58   30.000000                  TIME OF LAST OBS
     0                                                      # OF SATELLITES
                                                            END OF HEADER
 97  3  5 23 33  0.0000000  0  6G 4G 2G 5G 7G 9G24
  20636049.641          -0.96117        -0.06033
  23244706.742          -0.77615        -0.16231
  23173443.1334         -0.53455        -0.17771
  22208971.7194         -0.31357        -0.04671
  21275839.6254         -0.81656        -0.49172
  21654028.391          -0.15616        -0.24432
 97  3  5 23 33 30.0000000  0  6G 4G 2G 5G 7G 9G24
  20628371.547      -40342.896 7    -31435.29823
  23252583.766       41392.737 5     32254.51221
  23152480.5864    -110153.56145    -85833.67461
  22216012.5084      37007.56647     28837.25761
  21266384.5164     -49675.74447    -38708.22663
  21633332.742     -108754.935 6    -84744.18222
 97  3  5 23 34  0.0000000  0  6G 4G 2G 5G 7G 9G24
  20620805.117      -80119.935 7    -62430.35223
  23260508.7034      83036.74245     64704.36961
  23131524.375     -220291.907 6   -171655.71221
  22223062.727       74050.885 7     57702.19721
  21257033.7584     -98814.31247    -76998.01163
  21612705.094     -217159.867 6   -169215.47721
 97  3  5 23 34 30.0000000  0  6G 4G 2G 5G 7G 9G24
  20613348.4844    -119317.37147    -92973.79263
  23268478.1094     124933.42645     97351.12161
  23110570.523     -330409.019 5   -257461.21921
  22230123.2974     111141.95547     86604.33261
  21247785.9064    -147410.73947   -114865.34463
  21592137.602     -325219.321 6   -253417.60822
 97  3  5 23 35  0.0000000  0  6G 4G 2G 5G 7G 9G24
  20605999.414     -157934.027 7   -123064.67623
  23276497.984      167073.430 5    130187.47221
  23089615.289     -440515.913 5   -343258.75121
  22237188.6564     148281.37147    115544.15061
  21238638.3914    -195477.96747   -152320.31362
  21571644.797     -432922.515 7   -337342.15622
 97  3  5 23 35 30.0000000  0  6G 4G 2G 5G 7G 9G24
  20598763.648     -195963.055 7   -152697.65523
  23284563.3364     209443.25045    163202.90861
  23068667.6024    -550606.37846   -429043.49161
  22244267.4534     185484.35547    144533.45661
  21229594.0474    -243012.27046   -189360.02462
  21551220.6334    -540253.96947   -420976.99861
 97  3  5 23 36  0.0000000  0  6G 4G 2G 5G 7G 9G24
  20591636.586     -233404.722 7   -181872.94823
  23292663.6254     252035.68645    196391.82061
  23047725.539     -660666.646 6   -514804.66621
  22251360.7194     222745.93347    173568.48561
  21220650.1564    -290011.97046   -225983.16462
  21530867.852     -647210.035 6   -504319.34422
 97  3  5 23 36 30.0000000  0  6G 4G 2G 5G 7G 9G24
  20584624.3594    -270249.20847   -210582.94063
  23300815.3204     294858.70345    229760.36161
  23026784.352     -770688.912 5   -600536.29121
  22258461.383      260065.927 6    202648.98121
  21211809.7814    -336471.88147   -262185.69462
  21510591.7734    -753771.13047   -587353.97162
 97  3  5 23 36 59.9990000  0  6G 4G 2G 5G 7G 9G24
  20577727.3314    -306499.91747   -238830.23162
  23309009.0504     337912.23145    263308.54861
  23005857.636     -880667.613 5   -686233.92721
  22265572.948      297435.567 7    231768.16421
  21203073.0344    -382378.66947   -297957.19162
  21490388.269     -859925.063 7   -670071.28622
 97  3  5 23 37 29.9990000  0  6G 4G 2G 5G 7G 9G24
  20570939.925     -342167.766 7   -266623.32423
  23317246.5114     381200.24345    297039.45161
  22984935.2224    -990611.89245   -771904.77561
  22272689.7454     334853.10246    260924.71561
  21194441.3554    -427731.14547   -333296.77362
  21470263.4484    -965684.77047   -752481.41262
 97  3  5 23 37 59.9990000  0  6G 4G 2G 5G 7G 9G24
  20564264.3554    -377248.10047   -293958.63963
  23325532.2764     424741.97545    330968.07761
  22964020.690    -1100522.802 5   -857549.59821
  22279825.683      372323.283 7    290122.24221
  21185917.4724    -472526.84547   -368202.51462
  21450215.5894   -1071045.18147   -834580.38762
 97  3  5 23 38 29.9990000  0  6G 4G 2G 5G 7G 9G24
  20557701.8154    -411742.52847   -320837.40663
  23333864.105      468537.018 5    365094.05521
  22943109.3474   -1210427.57546   -943189.63961
  22286962.698      409846.838 6    319361.37721
  21177496.1364    -516779.09647   -402684.79063
  21430243.675    -1175999.252 7   -916362.72522
 97  3  5 23 38 59.9990000  0  6G 4G 2G 5G 7G 9G24
  20551251.683     -445639.459 7   -347250.56623
  23342246.433      512590.080 5    399421.08421
  22922197.972    -1320311.632 6  -1028813.56021
  22294117.4334     447440.27446    348654.96961
  21169180.1514    -560485.03147   -436741.35562
  21410349.6904   -1280530.14546   -997815.34861
 97  3  5 23 39 29.9990000  0  6G 4G 2G 5G 7G 9G24
  20544909.9174    -478945.16247   -373203.05763
  23350668.6984     556895.42945    433944.72361
  22901295.5194   -1430172.29345  -1114419.22361
  22301285.480      485099.230 6    377999.60121
  21160966.722     -603656.326 7   -470381.31422
  21390536.901    -1384656.780 7  -1078952.93922
 97  3  5 23 39 59.9990000  0  6G 4G 2G 5G 7G 9G24
  20538691.1204    -511649.15947   -398686.67563
  23359158.2844     601457.74745    468668.60861
  22880392.151    -1540002.863 5  -1200001.45121
  22308464.3864     522828.18246    407398.78261
  21152851.565     -646280.128 7   -503594.64221
  21370795.136    -1488389.112 7  -1159783.28722
 97  3  5 23 40 29.9990000  0  6G 4G 2G 5G 7G 9G24
  20532579.003     -543738.411 7   -423691.26623
  23367684.300      646270.153 5    503587.33621
  22859500.6754   -1649779.13746  -1285541.34061
  22315653.831      560630.588 6    436855.21221
  21144852.8004    -688337.94147   -536366.93761
  21351131.870    -1591720.663 7  -1240301.34822
 97  3  5 23 40 59.9990000  0  6G 4G 2G 5G 7G 9G24
  20526594.495     -575204.547 7   -448210.29123
  23376258.6284     691326.99545    538696.53061
  22838626.690    -1759479.762 6  -1371022.30721
  22322864.519      598499.629 6    466363.53821
  21136953.073     -729822.036 7   -568692.18322
  21331544.886    -1694665.072 7  -1320517.73522
 97  3  5 23 41 29.9990000  0  6G 4G 2G 5G 7G 9G24
  20520725.0974    -606039.68247   -472237.65063
  23384884.0814     736626.29345    573994.63861
  22817764.386    -1869113.979 6  -1456451.54621
  22330081.1124     636428.34646    495918.38961
  21129173.8004    -770735.27747   -600572.61762
  21312024.7144   -1797234.18847  -1400441.68862
 97  3  5 23 41 59.9990000  0  6G 4G 2G 5G 7G 9G24
  20514981.4334    -636239.70747   -495770.12763
  23393538.237      782154.132 5    609470.86321
  22796919.003    -1978676.326 6  -1541824.74121
  22337305.2454     674417.39246    525520.22661
  21121491.2764    -811084.70646   -632013.72863
  21292582.2064   -1899401.99047  -1480052.94062
 97  3  5 23 42 29.9990000  0  6G 4G 2G 5G 7G 9G24
  20509355.4954    -665798.08047   -518802.61762
  23402252.690      827927.071 5    645138.10221
  22776087.9254   -2088141.21946  -1627122.01661
  22344553.4094     712476.14846    555176.42861
  21113924.4724    -850850.90846   -663000.40263
  21273226.1754   -2001122.70847  -1559315.79462
 97  3  5 23 42 59.9990000  0  6G 4G 2G 5G 7G 9G24
  20503849.0734    -694725.96247   -541343.80762
  23411018.4564     873954.35645    681003.49161
  22755274.878    -2197511.039 6  -1712345.20521
  22351808.690      750602.237 6    584885.02421
  21106470.0654    -890038.94446   -693536.53762
  21253956.4094   -2102384.50646  -1638221.02862
 97  3  5 23 43 29.9990000  0  6G 4G 2G 5G 7G 9G24
  20498462.2144    -723056.52347   -563419.55363
  23419818.589      920224.742 5    717058.30921
  22734475.847    -2306796.004 6  -1797502.28521
  22359074.847      788793.267 6    614644.30721
  21099118.3624    -928654.99147   -723626.95762
  21234775.894    -2203185.809 6  -1716767.46122
 97  3  5 23 43 59.9990000  0  6G 4G 2G 5G 7G 9G24
  20493200.8944    -750689.19047   -584951.49463
  23428690.542      966871.214 5    753406.13821
  22713720.5114   -2415858.17046  -1882485.78961
  22366379.058      827171.718 6    644549.57821
  21091909.2614    -966558.45947   -753162.12362
  21215709.065    -2303389.189 6  -1794847.98921
 97  3  5 23 44 29.9990000  0  6G 4G 2G 5G 7G 9G24
  20488081.6674    -777593.30547   -605915.71763
  23437652.042     1013951.772 5    790092.36121
  22693015.003    -2524672.345 6  -1967275.99721
  22373723.3084     865771.53346    674627.33861
  21084840.3704   -1003711.20947   -782112.29862
  21196760.183    -2402961.338 7  -1872436.63422
 97  3  5 23 44 59.9990000  0  6G 4G 2G 5G 7G 9G24
  20483079.901     -803881.563 7   -626400.05123
  23446673.651     1061349.363 5    827025.50421
  22672335.495    -2633350.616 6  -2051960.33721
  22381091.8004     904485.87746    704794.36761
  21077884.4874   -1040247.64847   -810582.24562
  21177906.675    -2502026.423 6  -1949630.16122
 97  3  5 23 45 29.9990000  0  6G 4G 2G 5G 7G 9G24
  20478194.3234    -829547.18347   -646399.21463
  23455746.144     1109062.538 4    864204.59821
  22651678.167    -2741892.539 6  -2136538.43121
  22388476.6124     943322.84246    735056.92261
  21071053.1364   -1076155.70847   -838562.54162
  21159151.651    -2600586.818 7  -2026430.43222
 97  3  5 23 45 59.9990000  0  6G 4G 2G 5G 7G 9G24
  20473430.409     -854573.382 7   -665900.12222
  23464895.894     1157098.910 5    901635.51021
  22631051.6204   -2850304.58446  -2221015.32261
  22395897.5264     982279.42746    765412.71961
  21064340.6124   -1111437.78147   -866055.05262
  21140494.339    -2698632.246 7  -2102829.43922
 97  3  5 23 46 29.9990000  0  6G 4G 2G 5G 7G 9G24
  20468793.0654    -878958.57247   -684901.55062
  23474097.1444    1205444.39545    939307.29461
  22610439.980    -2958605.132 6  -2305405.32221
  22403326.6124    1021349.01046    795856.51961
  21057737.7374   -1146110.61247   -893072.83862
  21121932.308    -2796184.376 7  -2178844.06022
 97  3  5 23 46 59.9990000  0  6G 4G 2G 5G 7G 9G24
  20464274.5504    -902700.21247   -703401.51762
  23483351.6754    1254086.69245    977210.33761
  22589857.261    -3066793.375 6  -2389707.80921
  22410783.433     1060524.369 6    826382.80721
  21051258.2064   -1180171.33646   -919613.66463
  21103456.987    -2893266.653 7  -2254492.54122
 97  3  5 23 47 29.9990000  0  6G 4G 2G 5G 7G 9G24
  20459883.0814    -925772.59347   -721379.98163
  23492664.3234    1303038.83244   1015354.83661
  22569284.7224   -3174876.41246  -2473928.32161
  22418259.550     1099809.035 6    856994.19421
  21044897.5504   -1213602.75947   -945664.14163
  21085074.440    -2989865.357 6  -2329764.21823
 97  3  5 23 47 59.9990000  0  6G 4G 2G 5G 7G 9G24
  20455619.4404    -948185.11347   -738844.26963
  23502033.8474    1352297.98044   1053738.56361
  22548738.909    -3282870.032 6  -2558079.15521
  22425757.1834    1139187.53146    887678.77261
  21038651.2454   -1246425.07047   -971239.97363
  21066782.690    -3085989.655 7  -2404666.24322
 97  3  5 23 48 29.9990000  0  6G 4G 2G 5G 7G 9G24
  20451477.667     -969941.189 7   -755797.01823
  23511473.198     1401859.138 5   1092357.63221
  22528203.300    -3390766.284 6  -2642154.11521
  22433267.2844    1178659.33546    918436.01061
  21032520.0344   -1278638.91247   -996341.66963
  21048580.480    -3181654.604 7  -2479210.33022
 97  3  5 23 48 59.9990000  0  6G 4G 2G 5G 7G 9G24
  20447464.409     -991049.485 7   -772245.01123
  23520958.0344    1451700.19145   1131194.79861
  22507687.558    -3498570.720 6  -2726157.52821
  22440788.8624    1218215.21746    949258.76361
  21026502.6674   -1310260.44247  -1020981.82063
  21030461.5974   -3276855.33847  -2553392.68862
 97  3  5 23 49 29.9990000  0  6G 4G 2G 5G 7G 9G24
  20443566.2534   -1011527.78847   -788202.11063
  23530492.855     1501819.911 5   1170249.11921
  22487193.1754   -3606282.34146  -2810088.66561
  22448335.0194    1257857.63446    980148.98061
  21020598.5814   -1341287.79947  -1045158.98262
  21012437.1594   -3371572.94547  -2627198.61162
 97  3  5 23 49 59.9990000  0  6G 4G 2G 5G 7G 9G24
  20439784.7224   -1031394.19547   -803682.41562
  23540085.933     1552219.958 5   1209521.84321
  22466715.7614   -3713878.88546  -2893930.12461
  22455895.6054    1297590.07346   1011109.31661
  21014811.7144   -1371713.23847  -1068867.11662
  20994509.4404   -3465809.10447  -2700629.35862
 97  3  5 23 50 29.9990000  0  6G 4G 2G 5G 7G 9G24
  20436118.4094   -1050649.55147   -818686.58062
  23549724.362     1602891.291 5   1249005.96421
  22446271.128    -3821335.893 6  -2977662.81921
  22463473.1284    1337410.49946   1042138.21461
  21009136.5814   -1401528.15247  -1092099.50762
  20976668.198    -3559551.615 7  -2773675.43722
 97  3  5 23 50 59.9990000  0  6G 4G 2G 5G 7G 9G24
  20432577.1284   -1069276.13847   -833200.79463
  23559421.370     1653849.987 5   1288714.01821
  22425848.362    -3928644.870 6  -3061280.16621
  22471071.855     1377324.425 6   1073239.96321
  21003579.2224   -1430727.44647  -1114852.20062
  20958927.815    -3652780.151 7  -2846321.02523
 97  3  5 23 51 29.9990000  0  6G 4G 2G 5G 7G 9G24
  20429153.495    -1087269.271 7   -847221.39823
  23569179.7224    1705108.08345   1328655.37461
  22405458.089    -4035802.359 6  -3144779.46821
  22478680.2764    1417326.72546   1104410.57761
  20998140.7374   -1459306.25347  -1137121.39362
  20941281.3234   -3745497.81447  -2918568.54462
 97  3  5 23 51 59.9990000  0  6G 4G 2G 5G 7G 9G24
  20425855.620    -1104598.893 7   -860724.97923
  23578988.456     1756662.281 5   1368827.44221
  22385095.917    -4142803.920 6  -3228157.26721
  22486310.0584    1457420.62146   1135652.58561
  20992818.7304   -1487266.78847  -1158908.81962
  20923737.1364   -3837703.12647  -2990416.82262
 97  3  5 23 52 29.9990000  0  6G 4G 2G 5G 7G 9G24
  20422684.9334   -1121256.87247   -873705.20063
  23588852.753     1808498.069 5   1409218.92921
  22364759.815    -4249659.754 6  -3311421.51521
  22493960.2144    1497604.06146   1166964.33561
  20987612.9564   -1514621.89147  -1180224.48162
  20906288.855    -3929399.293 7  -3061868.34523
 97  3  5 23 52 59.9990000  0  6G 4G 2G 5G 7G 9G24
  20419643.8944   -1137231.60247   -886153.03562
  23598773.323     1860619.035 5   1449832.63121
  22344451.2614   -4356376.98646  -3394577.75261
  22501622.9174    1537885.52446   1198352.47861
  20982522.6364   -1541370.07346  -1201067.22662
  20888935.097    -4020588.119 7  -3132924.53723
 97  3  5 23 53 29.9990000  0  6G 4G 2G 5G 7G 9G24
  20416729.9254   -1152548.45947   -898088.23962
  23608733.0424    1912998.23845   1490647.57861
  22324172.284    -4462965.771 6  -3477633.92821
  22509302.7764    1578256.94946   1229810.73561
  20977548.519    -1567512.033 6  -1221437.60422
  20871677.675    -4111272.766 7  -3203587.85223
 97  3  5 23 53 59.9990000  0  6G 4G 2G 5G 7G 9G24
  20413935.6754   -1167238.60647   -909535.11363
  23618742.651     1965601.713 4   1531637.26621
  22303908.526    -4569437.532 6  -3560598.88821
  22517004.831     1618705.143 6   1261328.79521
  20972686.0504   -1593068.31146  -1241351.60062
  20854514.714    -4201469.782 7  -3273871.20923
 97  3  5 23 54 29.9990000  0  6G 4G 2G 5G 7G 9G24
  20411255.6284   -1181324.92847   -920511.45963
  23628804.5344    2018446.82744   1572815.25761
  22283669.7224   -4675780.61946  -3643463.60661
  22524713.9804    1659230.97846   1292907.36561
  20967935.9724   -1618028.59746  -1260801.17562
  20837447.105    -4291165.933 7  -3343764.28522
 97  3  5 23 54 59.9990000  0  6G 4G 2G 5G 7G 9G24
  20408686.503    -1194819.172 7   -931026.44023
  23638910.2454    2071546.59845   1614191.65361
  22263460.2924   -4782002.17746  -3726233.62361
  22532442.3784    1699834.70446   1324546.62661
  20963303.4014   -1642383.49547  -1279779.00162
  20820471.831    -4380352.197 7  -3413260.05122
 97  3  5 23 55 29.9990000  0  6G 4G 2G 5G 7G 9G24
  20406233.128    -1207710.298 7   -941071.44823
  23649066.0654    2124931.50644   1655790.26661
  22243274.3784   -4888078.14446  -3808890.19561
  22540185.0734    1740548.23946   1356271.44461
  20958789.386    -1666113.476 7  -1298269.87222
  20803605.4404   -4469006.74747  -3482341.50162
 97  3  5 23 55 59.9990000  0  6G 4G 2G 5G 7G 9G24
  20403904.9644   -1219941.10647   -950601.93463
  23659295.230     2178684.781 4   1697675.89921
  22223130.050    -4993940.998 6  -3891380.71721
  22547968.3944    1781427.07146   1388125.09561
  20954403.0654   -1689159.51447  -1316227.81462
  20786844.612    -4557074.106 7  -3550965.38523
 97  3  5 23 56 29.9990000  0  6G 4G 2G 5G 7G 9G24
  20401698.1054   -1231530.85247   -959632.90462
  23669595.4014    2232793.98945   1739838.88661
  22203016.323    -5099628.488 6  -3973734.56521
  22555769.644     1822436.674 6   1420080.61621
  20950140.9484   -1711540.33646  -1333667.41462
  20770192.112    -4644584.168 7  -3619155.00123
 97  3  5 23 56 59.9990000  0  6G 4G 2G 5G 7G 9G24
  20399619.2304   -1242470.53847   -968157.32962
  23679954.7924    2287232.67645   1782258.61961
  22182937.839    -5205150.984 6  -4055959.84321
  22563600.0504    1863562.05746   1452126.37561
  20946008.2534   -1733267.63746  -1350597.78462
  20753637.987    -4731565.897 7  -3686932.94323
 97  3  5 23 57 29.9990000  0  6G 4G 2G 5G 7G 9G24
  20397657.2614   -1252782.96647   -976192.97963
  23690367.190     2341960.665 4   1824903.79621
  22162887.5114   -5310521.16346  -4138066.46161
  22571437.8474    1904760.19046   1484228.80161
  20941991.7454   -1754371.36646  -1367042.25662
  20737182.167    -4818058.401 7  -3754329.66922
 97  3  5 23 57 59.9990000  0  6G 4G 2G 5G 7G 9G24
  20395813.5654   -1262468.08547   -983739.81463
  23700832.4334    2396959.76644   1867760.20761
  22142864.355    -5415745.949 6  -4220059.78921
  22579283.0654    1946002.67946   1516365.80461
  20938095.3944   -1774847.36246  -1382997.58762
  20720816.394    -4904066.151 7  -3821348.65722
